{"data":{"norad_id":59404,"intl_designator":"2024-064G","name":"STARLINK-31374","alt_names":[],"object_type":"PAYLOAD","status":"ACTIVE","operator":null,"country":"US","launch_date":"2024-04-05","launch_site_code":"AFETR","launch_vehicle":null,"mission":null,"orbit_class":"UNKNOWN","rcs_meters":null,"size_class":null,"mass_kg":null,"dimensions":null,"purposes":["comms"],"wikipedia_slug":null,"has_3d_model":false,"image_url":null,"decayed_at":null,"tle_current":{"epoch":"2026-09-21T07:01:18.562080Z","epoch_age_seconds":96870,"freshness":"FRESH","line1":"1 59404U 24064G   26264.29257595  .00000484  00000+0  27097-4 0  9996","line2":"2 59404  43.0008 340.4488 0001160 234.4103 125.6641 15.27580234139471","mean_motion":15.27580234,"eccentricity":0.000116,"inclination_deg":43.0008,"raan_deg":340.4488,"arg_perigee_deg":234.4103,"mean_anomaly_deg":125.6641,"bstar":2.7097e-5,"rev_number":13947,"period_min":94.266734273547,"perigee_km":482.2524978537,"apogee_km":483.84429286542,"semimajor_km":6861.1853953596,"source":"CELESTRAK","updated_at":"2026-09-22T09:00:48.914419Z"}}}